Radiation Dose at Monitoring Post of Fukushima Daini Nuclear Power Station
Date,Time,MP-1(microSv/h),MP-2(microSv/h),MP-3(microSv/h),MP-4(microSv/h),MP-5(microSv/h),MP-6(microSv/h),MP-7(microSv/h),Wind Direction,Wind Velocity(m/s),Rain
2015/11/30,00:00,0.456,0.268,0.479,0.461,0.443,0.224,0.195,north-northwest,4.6,No
2015/11/30,00:10,0.452,0.268,0.477,0.463,0.443,0.223,0.194,north-northwest,4.0,No
2015/11/30,00:20,0.451,0.268,0.480,0.461,0.442,0.224,0.196,north-northwest,3.7,No
2015/11/30,00:30,0.454,0.269,0.478,0.461,0.442,0.225,0.195,northwest,2.7,No
2015/11/30,00:40,0.452,0.268,0.477,0.463,0.444,0.223,0.194,north-northwest,2.9,No
2015/11/30,00:50,0.452,0.267,0.479,0.461,0.443,0.224,0.196,north-northwest,2.6,No
2015/11/30,01:00,0.454,0.268,0.479,0.459,0.442,0.224,0.195,north-northwest,2.6,No
2015/11/30,01:10,0.454,0.267,0.477,0.462,0.443,0.225,0.196,north,2.1,No
2015/11/30,01:20,0.451,0.267,0.478,0.461,0.443,0.224,0.195,north,1.2,No
2015/11/30,01:30,0.453,0.269,0.480,0.461,0.442,0.224,0.197,-,CALM,No
2015/11/30,01:40,0.454,0.268,0.477,0.462,0.443,0.224,0.196,west,0.6,No
2015/11/30,01:50,0.452,0.269,0.479,0.464,0.443,0.225,0.195,-,CALM,No
2015/11/30,02:00,0.453,0.268,0.479,0.462,0.441,0.224,0.195,-,CALM,No
2015/11/30,02:10,0.454,0.269,0.479,0.460,0.442,0.224,0.195,northwest,0.8,No
2015/11/30,02:20,0.453,0.268,0.478,0.461,0.444,0.224,0.195,-,CALM,No
2015/11/30,02:30,0.452,0.268,0.481,0.461,0.443,0.223,0.194,-,CALM,No
2015/11/30,02:40,0.454,0.268,0.478,0.462,0.439,0.223,0.195,north,1.7,No
2015/11/30,02:50,0.453,0.267,0.477,0.462,0.443,0.224,0.195,north-northeast,1.4,No
2015/11/30,03:00,0.452,0.268,0.481,0.462,0.443,0.225,0.196,north-northeast,1.4,No
2015/11/30,03:10,0.454,0.268,0.480,0.462,0.442,0.224,0.196,north-northeast,1.7,No
2015/11/30,03:20,0.453,0.269,0.477,0.460,0.442,0.225,0.195,north,2.7,No
2015/11/30,03:30,0.454,0.269,0.479,0.461,0.443,0.224,0.195,north,3.1,No
2015/11/30,03:40,0.455,0.270,0.479,0.461,0.444,0.224,0.196,north-northwest,3.6,No
2015/11/30,03:50,0.454,0.268,0.478,0.461,0.442,0.225,0.195,north-northwest,2.8,No
2015/11/30,04:00,0.453,0.269,0.478,0.460,0.440,0.225,0.194,north-northwest,4.1,No
2015/11/30,04:10,0.453,0.268,0.480,0.461,0.443,0.224,0.196,north-northwest,3.9,No
2015/11/30,04:20,0.454,0.268,0.478,0.461,0.443,0.224,0.194,north-northwest,2.0,No
2015/11/30,04:30,0.453,0.268,0.477,0.460,0.442,0.224,0.196,north-northwest,2.8,No
2015/11/30,04:40,0.451,0.267,0.478,0.462,0.442,0.225,0.194,north-northwest,2.7,No
2015/11/30,04:50,0.453,0.266,0.478,0.462,0.443,0.224,0.195,northwest,3.6,No
2015/11/30,05:00,0.455,0.269,0.478,0.461,0.442,0.224,0.195,north-northwest,3.3,No
2015/11/30,05:10,0.451,0.267,0.479,0.462,0.443,0.224,0.195,north-northwest,2.9,No
2015/11/30,05:20,0.454,0.267,0.479,0.462,0.443,0.224,0.195,north-northwest,3.9,No
2015/11/30,05:30,0.454,0.268,0.477,0.460,0.441,0.224,0.195,north-northwest,4.1,No
2015/11/30,05:40,0.452,0.267,0.479,0.461,0.442,0.225,0.195,north-northwest,3.3,No
2015/11/30,05:50,0.452,0.267,0.478,0.463,0.443,0.225,0.194,north-northwest,2.4,No
2015/11/30,06:00,0.454,0.267,0.478,0.461,0.442,0.224,0.195,northwest,3.8,No
2015/11/30,06:10,0.451,0.269,0.478,0.460,0.441,0.225,0.195,northwest,3.5,No
2015/11/30,06:20,0.453,0.269,0.480,0.463,0.442,0.224,0.193,northwest,3.6,No
2015/11/30,06:30,0.453,0.268,0.477,0.462,0.443,0.224,0.194,north-northwest,3.5,No
2015/11/30,06:40,0.451,0.268,0.477,0.460,0.441,0.223,0.195,north-northwest,3.5,No
2015/11/30,06:50,0.455,0.268,0.480,0.461,0.443,0.224,0.195,north-northwest,4.1,No
2015/11/30,07:00,0.451,0.267,0.477,0.464,0.442,0.224,0.194,north-northwest,4.0,No
2015/11/30,07:10,0.450,0.267,0.480,0.460,0.443,0.224,0.194,north-northwest,3.1,No
2015/11/30,07:20,0.453,0.268,0.481,0.461,0.444,0.224,0.195,north-northwest,3.1,No
2015/11/30,07:30,0.452,0.267,0.478,0.461,0.443,0.224,0.195,north-northwest,2.1,No
2015/11/30,07:40,0.450,0.268,0.479,0.459,0.442,0.224,0.195,north,2.4,No
2015/11/30,07:50,0.454,0.268,0.478,0.461,0.443,0.224,0.195,north-northwest,2.4,No
2015/11/30,08:00,0.453,0.267,0.476,0.463,0.443,0.224,0.194,north,1.4,No
2015/11/30,08:10,0.451,0.268,0.478,0.460,0.441,0.225,0.195,north,0.9,No
2015/11/30,08:20,0.455,0.267,0.478,0.460,0.442,0.224,0.195,north,1.6,No
2015/11/30,08:30,0.452,0.266,0.476,0.460,0.442,0.224,0.195,north-northeast,0.6,No
2015/11/30,08:40,0.453,0.269,0.480,0.460,0.441,0.224,0.195,north,2.0,No
2015/11/30,08:50,0.453,0.268,0.479,0.460,0.444,0.225,0.194,north,1.5,No
2015/11/30,09:00,0.451,0.266,0.479,0.463,0.441,0.224,0.196,north-northeast,0.7,No
2015/11/30,09:10,0.456,0.268,0.480,0.460,0.443,0.224,0.195,north,1.0,No
2015/11/30,09:20,0.452,0.267,0.477,0.464,0.441,0.224,0.193,north,1.2,No
2015/11/30,09:30,0.453,0.267,0.478,0.460,0.443,0.226,0.194,north,1.7,No
2015/11/30,09:40,0.452,0.267,0.478,0.461,0.444,0.225,0.196,north-northwest,1.1,No
2015/11/30,09:50,0.451,0.266,0.475,0.462,0.443,0.224,0.195,north,0.8,No
2015/11/30,10:00,0.454,0.267,0.479,0.459,0.444,0.223,0.194,north-northwest,1.4,No
2015/11/30,10:10,0.448,0.267,0.476,0.461,0.442,0.224,0.195,west-northwest,1.1,No
2015/11/30,10:20,0.452,0.267,0.480,0.460,0.443,0.225,0.195,northwest,1.1,No
2015/11/30,10:30,0.450,0.267,0.476,0.464,0.444,0.224,0.195,-,CALM,No
2015/11/30,10:40,0.454,0.268,0.478,0.458,0.443,0.224,0.194,-,CALM,No
2015/11/30,10:50,0.450,0.267,0.476,0.462,0.445,0.223,0.195,north-northwest,0.8,No
2015/11/30,11:00,0.453,0.268,0.478,0.460,0.442,0.225,0.194,-,CALM,No
2015/11/30,11:10,0.452,0.268,0.476,0.462,0.447,0.223,0.194,north-northeast,0.6,No
2015/11/30,11:20,0.452,0.267,0.477,0.462,0.441,0.225,0.195,west-southwest,0.9,No
2015/11/30,11:30,0.452,0.268,0.477,0.461,0.445,0.224,0.195,-,CALM,No
2015/11/30,11:40,0.451,0.267,0.477,0.461,0.441,0.226,0.195,-,CALM,No
2015/11/30,11:50,0.452,0.270,0.478,0.461,0.445,0.224,0.194,-,CALM,No
2015/11/30,12:00,0.451,0.267,0.476,0.462,0.443,0.224,0.194,east-southeast,0.6,No
2015/11/30,12:10,0.454,0.268,0.479,0.462,0.447,0.224,0.195,south-southeast,1.0,No
2015/11/30,12:20,0.452,0.268,0.476,0.462,0.443,0.225,0.194,south-southwest,1.2,No
2015/11/30,12:30,0.455,0.269,0.479,0.459,0.443,0.225,0.195,south,1.3,No
2015/11/30,12:40,0.450,0.268,0.476,0.463,0.442,0.224,0.194,south,1.9,No
2015/11/30,12:50,0.455,0.268,0.479,0.459,0.444,0.225,0.195,south,1.9,No
2015/11/30,13:00,0.451,0.268,0.475,0.461,0.445,0.223,0.194,south,2.2,No
2015/11/30,13:10,0.454,0.267,0.480,0.461,0.444,0.225,0.196,south,2.2,No
2015/11/30,13:20,0.451,0.269,0.477,0.464,0.446,0.224,0.194,south,2.0,No
2015/11/30,13:30,0.453,0.267,0.479,0.461,0.443,0.225,0.195,south,1.9,No
2015/11/30,13:40,0.452,0.268,0.476,0.462,0.447,0.224,0.194,south,1.7,No
2015/11/30,13:50,0.453,0.268,0.480,0.459,0.444,0.225,0.196,south-southwest,1.4,No
2015/11/30,14:00,0.456,0.268,0.476,0.463,0.447,0.224,0.195,south,1.6,No
2015/11/30,14:10,0.450,0.267,0.478,0.458,0.441,0.225,0.196,south-southeast,1.7,No
2015/11/30,14:20,0.454,0.269,0.476,0.462,0.446,0.224,0.195,south-southwest,1.4,No
2015/11/30,14:30,0.451,0.267,0.478,0.459,0.442,0.224,0.196,south,1.2,No
2015/11/30,14:40,0.455,0.267,0.478,0.463,0.445,0.224,0.194,south,1.8,No
2015/11/30,14:50,0.450,0.268,0.480,0.461,0.443,0.225,0.196,south,2.0,No
2015/11/30,15:00,0.455,0.267,0.477,0.463,0.445,0.224,0.195,south,2.0,No
2015/11/30,15:10,0.452,0.268,0.477,0.463,0.443,0.223,0.195,south,4.2,No
2015/11/30,15:20,0.453,0.268,0.480,0.462,0.444,0.224,0.195,south,3.8,No
2015/11/30,15:30,0.452,0.268,0.478,0.463,0.445,0.225,0.194,south,3.5,No
2015/11/30,15:40,0.451,0.267,0.479,0.461,0.443,0.224,0.195,south-southwest,4.1,No
2015/11/30,15:50,0.453,0.268,0.477,0.464,0.447,0.224,0.195,south,4.4,No
2015/11/30,16:00,0.451,0.270,0.480,0.461,0.443,0.224,0.194,south-southwest,4.3,No
2015/11/30,16:10,0.455,0.266,0.477,0.463,0.445,0.223,0.194,south-southwest,4.4,No
2015/11/30,16:20,0.449,0.268,0.479,0.462,0.444,0.224,0.195,south-southwest,4.9,No
2015/11/30,16:30,0.455,0.269,0.479,0.461,0.442,0.223,0.195,south-southwest,4.4,No
2015/11/30,16:40,0.451,0.267,0.477,0.462,0.444,0.225,0.195,south-southwest,5.0,No
2015/11/30,16:50,0.454,0.267,0.479,0.459,0.442,0.224,0.195,south-southwest,5.1,No
2015/11/30,17:00,0.454,0.269,0.477,0.463,0.445,0.224,0.194,south-southwest,5.2,No
2015/11/30,17:10,0.451,0.267,0.477,0.462,0.443,0.226,0.194,south-southwest,5.0,No
2015/11/30,17:20,0.455,0.267,0.479,0.460,0.441,0.225,0.195,south-southwest,4.5,No
2015/11/30,17:30,0.453,0.267,0.477,0.463,0.444,0.224,0.195,south-southwest,4.8,No
2015/11/30,17:40,0.452,0.268,0.479,0.461,0.444,0.224,0.194,south-southwest,6.1,No
2015/11/30,17:50,0.455,0.269,0.478,0.461,0.441,0.225,0.195,south-southwest,6.3,No
2015/11/30,18:00,0.452,0.268,0.477,0.463,0.443,0.224,0.194,south-southwest,6.3,No
2015/11/30,18:10,0.452,0.267,0.479,0.462,0.442,0.224,0.195,south-southwest,6.6,No
2015/11/30,18:20,0.454,0.268,0.478,0.461,0.441,0.224,0.196,south-southwest,8.6,No
2015/11/30,18:30,0.452,0.268,0.478,0.463,0.445,0.225,0.195,south-southwest,7.4,No
2015/11/30,18:40,0.453,0.268,0.477,0.461,0.440,0.224,0.194,south-southwest,8.4,No
2015/11/30,18:50,0.452,0.268,0.476,0.461,0.443,0.225,0.196,south-southwest,10.1,No
2015/11/30,19:00,0.451,0.268,0.480,0.461,0.443,0.225,0.194,south-southwest,9.2,No
2015/11/30,19:10,0.455,0.268,0.478,0.460,0.442,0.226,0.197,south-southwest,9.3,No
2015/11/30,19:20,0.455,0.268,0.477,0.463,0.442,0.224,0.195,south-southwest,11.5,No
2015/11/30,19:30,0.452,0.269,0.479,0.463,0.442,0.225,0.195,south-southwest,8.8,No
2015/11/30,19:40,0.454,0.267,0.478,0.461,0.444,0.224,0.194,southwest,7.8,No
2015/11/30,19:50,0.453,0.267,0.478,0.462,0.442,0.224,0.196,south-southwest,5.4,No
2015/11/30,20:00,0.451,0.267,0.480,0.461,0.444,0.223,0.195,southwest,5.5,No
2015/11/30,20:10,0.455,0.268,0.476,0.462,0.441,0.224,0.195,southwest,1.4,No
2015/11/30,20:20,0.454,0.267,0.479,0.462,0.443,0.225,0.194,north,1.2,No
2015/11/30,20:30,0.454,0.268,0.480,0.461,0.443,0.224,0.195,southwest,2.1,No
2015/11/30,20:40,0.453,0.267,0.478,0.460,0.442,0.225,0.195,west-southwest,2.3,No
2015/11/30,20:50,0.453,0.267,0.480,0.462,0.441,0.225,0.194,southwest,1.1,No
2015/11/30,21:00,0.453,0.268,0.479,0.460,0.443,0.225,0.196,-,CALM,No
2015/11/30,21:10,0.454,0.267,0.478,0.461,0.442,0.225,0.196,-,CALM,No
2015/11/30,21:20,0.453,0.269,0.478,0.463,0.442,0.225,0.193,north-northwest,1.4,No
2015/11/30,21:30,0.452,0.268,0.479,0.462,0.443,0.225,0.195,west-northwest,3.1,No
2015/11/30,21:40,0.454,0.268,0.478,0.461,0.443,0.224,0.194,northwest,3.8,No
2015/11/30,21:50,0.451,0.269,0.481,0.462,0.442,0.225,0.194,north,1.8,No
2015/11/30,22:00,0.452,0.267,0.479,0.464,0.445,0.225,0.195,northeast,2.1,No
2015/11/30,22:10,0.452,0.268,0.477,0.461,0.443,0.224,0.196,north-northeast,1.4,No
2015/11/30,22:20,0.452,0.267,0.480,0.461,0.442,0.224,0.196,-,CALM,No
2015/11/30,22:30,0.452,0.268,0.478,0.463,0.443,0.224,0.196,west-northwest,0.7,No
2015/11/30,22:40,0.454,0.267,0.478,0.461,0.444,0.225,0.195,west-northwest,2.2,No
2015/11/30,22:50,0.452,0.267,0.480,0.460,0.442,0.223,0.195,west-northwest,3.3,No
2015/11/30,23:00,0.451,0.269,0.479,0.462,0.442,0.225,0.196,west-northwest,4.1,No
2015/11/30,23:10,0.454,0.268,0.477,0.461,0.444,0.225,0.196,west,3.8,No
2015/11/30,23:20,0.453,0.266,0.479,0.460,0.441,0.224,0.195,west-northwest,7.7,No
2015/11/30,23:30,0.451,0.268,0.478,0.463,0.441,0.224,0.195,west-northwest,11.2,No
2015/11/30,23:40,0.455,0.269,0.476,0.464,0.443,0.225,0.196,west,12.3,No
2015/11/30,23:50,0.455,0.267,0.481,0.459,0.442,0.224,0.196,west,11.5,No
